Weather History for Zanesville, OH

Change the Weather History Date:

Sunday, March 31, 2013

  Actual Average Record
Temperature  
Mean Temperature 47 °F 46 °F  
Max Temperature 52 °F 58 °F 83 °F (1998)
Min Temperature 42 °F 35 °F 16 °F (1969)
Degree Days  
Heating Degree Days 18 19  
Month to date heating degree days 886 751  
Since 1 July heating degree days 5017 4944  
Cooling Degree Days 0 0  
Month to date cooling degree days 0 1  
Year to date cooling degree days 0 1  
Moisture  
Dew Point 38 °F    
Average Humidity 59    
Maximum Humidity 80    
Minimum Humidity 37    
Precipitation  
Precipitation T in 0.12 in 0.88 in (1962)
Month to date precipitation 2.18 3.00  
Year to date precipitation 6.66 7.83  
Sea Level Pressure  
Sea Level Pressure 29.81 in    
Wind  
Wind Speed 5 mph (SW)    
Max Wind Speed 14 mph    
Max Gust Speed 18 mph    
Visibility 10 miles    
Events Rain    
T = Trace of Precipitation, MM = Missing Value Source: NWS Daily Summary

Daily Weather History Graph

Daily Weather History Graph

Search for Another Location

Airport:

Trip Planner

Search our weather history database for the weather conditions in past years. The results will help you decide how hot, cold, wet, or windy it might be!

Date:

Astronomy

Mar. 31, 2013 Rise Set
Actual Time 7:12 AM EDT 7:51 PM EDT
Civil Twilight 6:45 AM EDT 8:18 PM EDT
Nautical Twilight 6:13 AM EDT 8:50 PM EDT
Astronomical Twilight 5:40 AM EDT 9:23 PM EDT
Moon No Moon Rise 9:59 AM EDT (3/31)
Length of Visible Light 13h 32m
Length of Day
12h 38m
Waning Gibbous, 78% of the Moon is Illuminated
Mar 31
Waning Gibbous
Apr 3
Last Quarter
Apr 10
New
Apr 18
First Quarter
Apr 25
Full

Hourly Weather History & Observations

Time (EDT) Temp. Windchill Dew Point Humidity Pressure Visibility Wind Dir Wind Speed Gust Speed Precip Events Conditions
12:53 AM 46.0 °F 43.9 °F 21.9 °F 39% 29.96 in 10.0 mi SE 4.6 mph - N/A   Clear
1:53 AM 43.0 °F 41.3 °F 23.0 °F 45% 29.94 in 10.0 mi SE 3.5 mph - N/A   Clear
2:53 AM 45.0 °F 41.8 °F 21.0 °F 39% 29.91 in 10.0 mi SE 5.8 mph - N/A   Clear
3:53 AM 43.0 °F - 23.0 °F 45% 29.88 in 10.0 mi Calm Calm - N/A   Clear
4:53 AM 44.1 °F - 21.9 °F 42% 29.86 in 10.0 mi Calm Calm - N/A   Mostly Cloudy
5:53 AM 44.1 °F 42.5 °F 24.1 °F 45% 29.84 in 10.0 mi South 3.5 mph - N/A   Overcast
6:53 AM 44.1 °F 40.8 °F 27.0 °F 51% 29.84 in 10.0 mi SSW 5.8 mph - N/A   Overcast
7:53 AM 44.1 °F 40.1 °F 34.0 °F 68% 29.86 in 10.0 mi South 6.9 mph - 0.00 in Rain Light Rain
8:53 AM 43.0 °F - 39.0 °F 86% 29.84 in 10.0 mi Calm Calm - 0.00 in   Overcast
9:53 AM 44.1 °F - 39.9 °F 85% 29.82 in 10.0 mi Calm Calm - 0.00 in Rain Light Rain
10:53 AM 45.0 °F - 42.1 °F 90% 29.81 in 10.0 mi Calm Calm - 0.00 in   Overcast
11:09 AM 46.4 °F - 42.8 °F 87% 29.79 in 10.0 mi Calm Calm - N/A   Overcast
11:43 AM 46.4 °F 45.2 °F 42.8 °F 87% 29.80 in 8.0 mi SW 3.5 mph - N/A   Overcast
11:53 AM 46.0 °F 43.9 °F 43.0 °F 89% 29.81 in 8.0 mi SSW 4.6 mph - 0.00 in Rain Light Rain
12:24 PM 48.2 °F - 44.6 °F 87% 29.78 in 10.0 mi Calm Calm - 0.00 in   Overcast
12:53 PM 48.0 °F - 43.0 °F 83% 29.80 in 10.0 mi WSW 3.5 mph - 0.00 in   Overcast
1:08 PM 48.2 °F - 44.6 °F 87% 29.79 in 10.0 mi West 4.6 mph - N/A   Overcast
1:35 PM 48.2 °F - 44.6 °F 87% 29.78 in 10.0 mi WSW 5.8 mph - N/A   Overcast
1:48 PM 48.2 °F - 44.6 °F 87% 29.77 in 10.0 mi West 5.8 mph - N/A   Overcast
1:53 PM 48.0 °F - 43.0 °F 83% 29.78 in 10.0 mi West 5.8 mph - N/A   Overcast
2:02 PM 48.2 °F - 42.8 °F 82% 29.78 in 10.0 mi WSW 9.2 mph - N/A   Overcast
2:29 PM 48.2 °F - 44.6 °F 87% 29.78 in 10.0 mi WSW 6.9 mph - N/A   Overcast
2:53 PM 48.9 °F - 43.0 °F 80% 29.77 in 10.0 mi West 5.8 mph - N/A   Overcast
3:53 PM 51.1 °F - 44.1 °F 77% 29.75 in 10.0 mi SW 6.9 mph - N/A   Overcast
4:53 PM 50.0 °F - 43.0 °F 77% 29.75 in 10.0 mi WSW 11.5 mph - N/A   Overcast
5:53 PM 50.0 °F - 44.1 °F 80% 29.76 in 10.0 mi WSW 10.4 mph - 0.00 in Rain Light Rain
6:34 PM 51.8 °F - 42.8 °F 71% 29.75 in 10.0 mi SW 9.2 mph - 0.00 in   Mostly Cloudy
6:53 PM 51.1 °F - 43.0 °F 74% 29.76 in 10.0 mi WSW 5.8 mph - 0.00 in   Mostly Cloudy
7:00 PM 51.8 °F - 42.8 °F 71% 29.75 in 10.0 mi WSW 10.4 mph - N/A   Mostly Cloudy
7:07 PM 51.8 °F - 42.8 °F 71% 29.75 in 10.0 mi WSW 9.2 mph - N/A   Mostly Cloudy
8:53 PM 48.9 °F - 39.0 °F 69% 29.78 in 10.0 mi SW 5.8 mph - N/A   Clear
10:53 PM 44.1 °F 39.5 °F 37.9 °F 79% 29.77 in 10.0 mi South 8.1 mph - N/A   Clear